Welcome to the New NWS' Forecast!
Most changes are behind the scenes, but click here for differences you might notice.
Latest weather observations around

Pine Bluff, Grider Field Airport (KPBF)

Using English Units (Switch to International System of Units)
Date/ Time (CDT) Wind (mph) Vis. (mi) Weather Sky Cond. Temp (°F) Rel. Humidity Wind Chill (°F) Heat Index (°F) Pressure Precip. (in)
Air Dwpt 6 hour Altimeter (inHg) Sea level (inHg) 1 hr 3 hr 6 hr
Max Min
Jul 28 06:53 W 3 10 Mostly Cloudy BKN100 79 75     88%   83 29.93 29.92 0   0
Jul 28 05:53 SW 5 10 Light Rain CLR 79 75     88%   83 29.9 29.89 0    
Jul 28 04:53 WSW 3 10 Mostly Cloudy FEW090 BKN110 81 74     79%   86 29.89 29.88      
Jul 28 03:53 SW 5 10 Mostly Cloudy BKN110 80 74     82%   85 29.87 29.86      
Jul 28 02:53 SSW 3 10 Mostly Cloudy BKN120 80 75     85%   85 29.88 29.87      
Jul 28 01:53 SSW 3 10 Mostly Cloudy BKN110 81 75     82%   87 29.89 29.88      
Jul 28 00:53 SW 6 10 Clear CLR 82 75     79%   89 29.89 29.88      
Jul 27 23:53 SSW 7 10 Clear CLR 83 75     77%   90 29.89 29.88      
Jul 27 22:53 S 7 10 Mostly Clear FEW110 83 76     79%   91 29.9 29.89      
Jul 27 21:53 S 9 10 Partly Cloudy SCT110 83 76     79%   91 29.89 29.88      
Jul 27 20:53 S 7 10 Clear CLR 83 76     79%   91 29.9 29.89      
Jul 27 19:53 S 7 10 Clear CLR 85 77     77%   95 29.89 29.88      
Jul 27 18:53 S 10 10 Clear CLR 88 77     70%   100 29.89 29.88      
Jul 27 17:53 SSW 9 10 Clear CLR 90 77     66%   103 29.91 29.9      
Jul 27 16:53 SSW 8 10 Clear CLR 90 76     64%   102 29.92 29.91      
Jul 27 15:53 SSW 10 10 Clear CLR 91 75     60%   102 29.94 29.93      
Jul 27 14:53 SW 8 10 Clear CLR 91 74     57%   101 29.97 29.96      
Jul 27 13:53 SW 10 10 Clear CLR 92 74     56%   102 29.99 29.98      
Jul 27 12:53 SW 8 10 Clear CLR 90 75     62%   101 30.01 30      
Jul 27 11:53 WSW 8 10 Clear CLR 89 74     61%   98 30.03 30.02      
Jul 27 10:53 SW 10 10 Clear CLR 88 75     66%   98 30.03 30.02      
Jul 27 09:53 WSW 9 10 Clear CLR 86 75     70%   95 30.03 30.02      
Jul 27 05:53 SSW 3 10 Clear CLR 76 73     91%   77 30.01 30      
Jul 27 04:53 SSW 3 10 Clear CLR 77 73     88%   79 29.99 29.98      
Jul 27 03:53 SW 5 10 Clear CLR 78 73     85%   80 29.99 29.98      
Jul 27 01:53 SSW 5 10 Clear CLR 79 74     85%   83 30.01 30      
Jul 27 00:53 SSW 5 10 Clear CLR 79 74     85%   83 30.02 30.01      
Jul 26 23:53 S 6 10 Clear CLR 79 75     88%   83 30.02 30.01      
Jul 26 22:53 S 6 10 Clear CLR 80 76     87%   85 30.03 30.02      
Jul 26 21:53 S 3 10 Clear CLR 81 77     88%   88 30.04 30.03      
Jul 26 20:53 S 3 10 Clear CLR 83 76     79%   91 30.02 30.01      
Jul 26 19:53 S 3 10 Clear CLR 86 74     67%   94 30.01 30.01      
Jul 26 18:53 SSW 5 10 Clear CLR 89 73     59%   97 30.01 30      
Jul 26 17:53 SSW 9 10 Clear CLR 92 73     54%   101 30.01 30      
Jul 26 16:53 SW 6 10 Clear CLR 92 73     54%   101 30.03 30.02      
Jul 26 15:53 WSW 8 10 Clear CLR 93 73     52%   102 30.05 30.03      
Jul 26 14:53 SW 8 10 Clear CLR 92 72     52%   100 30.06 30.05      
Jul 26 13:53 SW 8 10 Clear CLR 92 73     54%   101 30.08 30.07      
Jul 26 12:53 SW 7 10 Partly Cloudy SCT037 90 75     62%   101 30.09 30.09      
Jul 26 11:53 NW 5 10 Clear CLR 89 74     61%   98 30.11 30.1      
Jul 26 10:53 W 8 10 Clear CLR 87 75     68%   97 30.11 30.1      
Jul 26 09:53 W 10 10 Clear CLR 85 75     72%   93 30.11 30.1      
Jul 26 08:53 WSW 8 10 Clear CLR 82 74     77%   88 30.11 30.1      
Jul 26 07:53 SW 3 10 Clear CLR 77 72     84%   78 30.11 30.1      
Jul 26 06:53 Calm 10 Clear CLR 74 71     91%   75 30.11 30.1      
Jul 26 05:53 Calm 10 Clear CLR 74 71     91%   75 30.1 30.09      
Jul 26 04:53 WSW 3 10 Clear CLR 75 71     88%   76 30.09 30.08      
Jul 26 03:53 WSW 5 10 Clear CLR 77 71     82%   78 30.08 30.07      
Jul 26 02:53 SW 3 10 Clear CLR 78 72     82%   79 30.07 30.06      
Jul 26 01:53 SW 5 10 Clear CLR 79 73     82%   82 30.08 30.07      
Jul 26 00:53 SSW 5 10 Clear CLR 80 74     82%   85 30.08 30.07      
Jul 25 23:53 SW 5 10 Clear CLR 81 75     82%   87 30.07 30.06      
Jul 25 22:53 SSW 3 10 Clear CLR 82 77     85%   90 30.06 30.05      
Jul 25 21:53 SSW 5 10 Clear CLR 84 77     80%   94 30.05 30.04      
Jul 25 20:53 Calm 10 Clear CLR 86 77     75%   97 30.05 30.04      
Jul 25 19:53 SSW 5 10 Clear CLR 89 75     63%   99 30.04 30.03      
Jul 25 18:53 SW 6 10 Clear CLR 92 75     58%   103 30.04 30.03      
Jul 25 17:53 SW 9 10 Clear CLR 93 75     56%   105 30.04 30.03      
Jul 25 16:53 SW 7 10 Clear CLR 93 74     54%   103 30.04 30.03      
Jul 25 15:53 SW 7 10 Clear CLR 93 75     56%   105 30.05 30.03      
Jul 25 14:53 SW 7 10 Mostly Clear FEW043 93 75     56%   105 30.06 30.05      
Jul 25 13:53 SSW 3 10 Clear CLR 92 74     56%   102 30.08 30.07      
Jul 25 12:53 W 5 10 Mostly Clear FEW039 91 75     60%   102 30.09 30.08      
Jul 25 11:53 W 8 10 Clear CLR 90 75     62%   101 30.09 30.08      
Jul 25 09:53 W 9 10 Clear CLR 86 76     72%   96 30.09 30.08      
Jul 25 08:53 W 9 10 Clear CLR 83 76     79%   91 30.09 30.08      
Jul 25 07:53 WSW 6 6 Fog/Mist CLR 78 75     90%   80 30.09 30.08      
Jul 25 06:53 SW 3 5 Fog/Mist CLR 76 74     94%   78 30.08 30.07      
Jul 25 05:53 WSW 3 6 Fog/Mist CLR 76 74     94%   78 30.06 30.05      
Jul 25 04:53 SSW 3 6 Fog/Mist CLR 76 75     97%   78 30.04 30.03      
Jul 25 03:53 S 5 4 Fog/Mist CLR 76 75     97%   78 30.02 30.01      
Jul 25 02:53 Calm 6 Fog/Mist CLR 77 75     94%   79 30.01 30      
Jul 25 01:53 S 5 6 Fog/Mist CLR 77 75     94%   79 30.01 30      
Jul 25 00:53 S 3 7 Clear CLR 78 75     90%   80 30.01 30      
Jul 24 23:53 W 3 10 Clear CLR 79 75     88%   83 29.99 29.98      
Jul 24 22:53 Calm 10 Clear CLR 79 75     88%   83 29.99 29.98      
Jul 24 21:53 S 5 10 Clear CLR 80 76     87%   85 29.98 29.97      
Jul 24 20:53 S 10 10 Clear CLR 82 77     85%   90 29.97 29.96      
Jul 24 19:53 S 7 10 Clear CLR 85 79     82%   98 29.95 29.94      
Jul 24 18:53 Calm 10 Clear CLR 89 78     70%   103 29.92 29.91      
Jul 24 17:53 Calm 10 Mostly Clear FEW038 91 74     57%   101 29.91 29.91      
Jul 24 16:53 Calm 10 Mostly Clear FEW038 90 75     62%   101 29.92 29.91      
Jul 24 15:53 Calm 10 Clear CLR 90 74     59%   99 29.93 29.92      
Jul 24 14:53 SW 6 10 Clear CLR 89 74     61%   98 29.94 29.93      
Jul 24 13:53 Calm 10 Clear CLR 88 72     59%   95 29.95 29.94      
Jul 24 12:53 E 6 10 Clear CLR 86 74     67%   94 29.97 29.96      
Jul 24 11:53 Calm 10 Mostly Clear FEW023 85 73     68%   92 29.97 29.96      
Jul 24 10:53 ENE 3 10 Mostly Clear FEW018 84 74     72%   91 29.97 29.96      
Jul 24 09:53 E 3 10 Mostly Clear FEW014 81 73     77%   86 29.97 29.96      
Jul 24 08:53 Calm 10 Clear CLR 79 73     82%   82 29.97 29.96      
Jul 24 07:53 Calm 10 Clear CLR 76 72     88%   77 29.95 29.94      
Jul 24 07:50 Calm 10 Mostly Clear FEW005 75 72     89%   77 29.95        
Jul 24 06:53 Calm 10 Clear CLR 73 71     94%   74 29.93 29.92      
Jul 24 05:53 Calm 9 Clear CLR 72 71     97%   73 29.93 29.92      
Jul 24 04:53 SE 3 6 Fog/Mist CLR 73 72     96%   75 29.91 29.9      
Jul 24 03:53 Calm 10 Clear CLR 74 72     94%   75 29.89 29.88      
Jul 24 02:53 W 5 10 Clear CLR 73 72     96%   75 29.87 29.85      
Jul 24 01:53 ESE 5 10 Mostly Clear FEW006 73 72     96%   75 29.87 29.86      
Jul 24 01:01 W 9 8 Mostly Cloudy FEW037 FEW070 BKN090 73 72     96%   75 29.89        
Jul 24 00:53 W 7 10 Mostly Cloudy SCT033 SCT070 BKN085 73 72     96%   75 29.91 29.9 0   0
Jul 24 00:40 SE 5 3 Rain and Fog/Mist FEW021 BKN029 OVC085 73 72     96%   75 29.94   0    
Jul 24 00:38 E 5 2.5 Heavy Rain and Fog/Mist FEW021 BKN029 OVC085 73 72     96%   75 29.94   0    
Jul 24 00:22   1.75 Heavy Rain and Fog/Mist BKN017 OVC023 73 71     94%   74 29.95   0    
Jul 24 00:01   10 Cloudy BKN017 OVC055 77 72     84%   78 29.95        
Jul 23 23:53 NE 6 10 Mostly Cloudy SCT019 BKN060 BKN075 78 75     90%   80 29.95 29.93      
Jul 23 22:53 Calm 10 Clear CLR 78 74     87%   80 29.91 29.9      
Jul 23 21:53 SSW 3 10 Clear CLR 79 74     85%   83 29.9 29.89      
Jul 23 20:53 SW 5 10 Clear CLR 80 73     79%   84 29.86 29.85      
Jul 23 19:53 SSW 5 10 Clear CLR 82 73     74%   87 29.85 29.84      
Jul 23 18:53 S 11 10 Clear CLR 84 74     72%   91 29.84 29.83      
Jul 23 17:53 SSW 9 10 Clear CLR 85 75     72%   93 29.84 29.83      
Jul 23 16:53 SSW 14 10 Mostly Cloudy BKN047 92 77     62%   106 29.84 29.83      
Jul 23 15:53 SSW 8 10 Partly Cloudy FEW045 SCT110 94 75     54%   106 29.84 29.83      
Jul 23 14:53 SSW 6 10 Partly Cloudy FEW043 SCT050 93 75     56%   105 29.86 29.85      
Jul 23 13:53 E 5 10 Clear CLR 94 75     54%   106 29.86 29.85      
Jul 23 12:53 5 10 Mostly Clear FEW060 FEW095 92 76     60%   104 29.89 29.88      
Jul 23 11:53 W 6 10 Clear CLR 89 77     68%   102 29.91 29.9      
Jul 23 10:53 SW 6 10 Mostly Clear FEW060 87 75     68%   97 29.93 29.92      
Jul 23 09:53 W 7 10 Mostly Clear FEW085 84 76     77%   93 29.94 29.93      
Jul 23 08:53 WSW 7 10 Mostly Clear FEW065 80 74     82%   85 29.94 29.93      
Jul 23 07:53 WSW 5 10 Clear CLR 77 74     90%   79 29.94 29.93      
Jul 23 06:53 S 3 9 Mostly Clear FEW050 74 72     94%   75 29.92 29.91      
Jul 23 05:53 SSW 3 10 Clear CLR 74 72     94%   75 29.91 29.9      
Jul 23 04:53 Calm 10 Clear CLR 75 72     90%   76 29.91 29.9      
Jul 23 02:53 SW 7 10 Clear CLR 76 72     88%   77 29.89 29.88      
Jul 23 01:53 SSW 7 10 Clear CLR 76 73     91%   77 29.9 29.89      
Jul 23 00:53 S 8 10 Clear CLR 77 73     88%   79 29.91 29.9      
Jul 22 23:53 S 5 10 Clear CLR 78 74     87%   80 29.91 29.91      
Jul 22 22:53 SSW 9 10 Clear CLR 80 74     82%   85 29.92 29.91      
Jul 22 20:53 S 9 10 Clear CLR 85 77     77%   95 29.9 29.89      
Jul 22 19:53 S 5 10 Clear CLR 89 77     68%   102 29.9 29.89      
Jul 22 18:53 S 6 10 Clear CLR 92 74     56%   102 29.88 29.88      
Jul 22 17:53 WSW 6 10 Clear CLR 93 73     52%   102 29.88 29.87      
Jul 22 16:53 5 10 Clear CLR 94 73     51%   103 29.89 29.88      
Jul 22 15:53 SW 6 10 Mostly Cloudy FEW049 SCT060 BKN075 94 74     53%   104 29.91 29.9      
Jul 22 14:53 SW 5 10 Mostly Clear FEW045 94 74     53%   104 29.92 29.91      
Jul 22 13:53 5 10 Mostly Clear FEW044 93 74     54%   103 29.94 29.93      
Jul 22 12:53 WSW 8 10 Clear CLR 93 75     56%   105 29.96 29.95      
Jul 22 11:53 7 10 Clear CLR 91 74     57%   101 29.97 29.96      
Jul 22 10:53 6 10 Clear CLR 89 76     65%   100 29.99 29.98      
Jul 22 09:53 WSW 5 10 Clear CLR 87 76     70%   98 30 29.98      
Jul 22 08:53 5 10 Clear CLR 83 76     79%   91 29.99 29.98      
Jul 22 07:53 SSW 6 10 Clear CLR 80 75     85%   85 29.98 29.97      
Jul 22 06:53 SW 6 9 Clear CLR 77 74     90%   79 29.97 29.96      
Jul 22 05:53 S 5 8 Clear CLR 76 74     94%   78 29.96 29.95      
Jul 22 04:53 S 6 7 Clear CLR 76 75     97%   78 29.94 29.93      
Jul 22 03:53 SE 3 6 Fog/Mist CLR 76 75     97%   78 29.93 29.92      
Jul 22 02:53 Calm 9 Clear CLR 77 75     94%   79 29.94 29.93      
Jul 22 01:53 S 3 10 Clear CLR 79 75     88%   83 29.95 29.94      
Jul 22 00:53 SW 3 10 Clear CLR 81 76     85%   87 29.96 29.95      
Jul 21 23:53 SSW 3 10 Clear CLR 82 76     82%   89 29.96 29.95      
Jul 21 22:53 S 5 10 Clear CLR 82 77     85%   90 29.97 29.96      
Jul 21 21:53 S 6 10 Clear CLR 83 78     85%   93 29.96 29.95      
Jul 21 20:53 SSW 5 10 Clear CLR 85 78     80%   97 29.95 29.94      
Jul 21 19:53 S 3 10 Clear CLR 87 78     75%   100 29.95 29.94      
Jul 21 18:53 SSE 6 10 Clear CLR 90 77     66%   103 29.95 29.94     0
Notice The following observation data may not be complete
Jul 21 17:53 SE 5 10 Clear CLR   74      %     29.94 29.93 0    
Jul 21 16:53 ESE 9 10 Mostly Clear FEW110 91 77     64%   105 29.96 29.95      
Jul 21 16:44 ESE 10 10 Thunderstorms FEW110 94 76     56%   107 29.96        
Jul 21 16:33 3 10 Partly Cloudy SCT110 95 73     49%   105 29.96        
Jul 21 15:53 WSW 5 10 Clear CLR 95 72     48%   104 29.97 29.96      
Jul 21 14:53 W 5 10 Clear CLR 94 74     53%   104 29.99 29.98      
Jul 21 13:53 3 10 Clear CLR 94 71     48%   101 30.01 30      
Jul 21 12:53   10 Clear CLR 93 74     54%   103 30.02 30.01      
Jul 21 11:53 SSW 5 10 Clear CLR 92 75     58%   103 30.03 30.02      
Jul 21 10:53 3 10 Clear CLR 91 76     61%   103 30.04 30.03      
Jul 21 09:53 SSW 6 10 Clear CLR 89 77     68%   102 30.04 30.03      
Jul 21 08:53 WSW 6 10 Clear CLR 85 77     77%   95 30.05 30.04      
Jul 21 07:53 Calm 10 Clear CLR 81 77     88%   88 30.05 30.04      
Jul 21 06:53 Calm 5 Fog/Mist CLR 77 76     96%   79 30.03 30.02      
Jul 21 05:53 Calm 8 Clear CLR 77 75     94%   79 30.02 30.01      
Jul 21 04:53 Calm 5 Fog/Mist CLR 77 75     94%   79 30 29.99      
Jul 21 03:53 Calm 8 Clear CLR 78 76     93%   80 30 29.99      
Jul 21 02:53 Calm 8 Clear CLR 78 76     93%   80 30.01 30      
Jul 21 01:53 WSW 3 10 Clear CLR 79 76     90%   83 30.01 30      
Jul 21 00:53 S 3 10 Clear CLR 80 77     90%   86 30.02 30.01      
Jul 20 23:53 Calm 10 Clear CLR 82 78     88%   91 30.03 30.02      
Jul 20 22:53 Calm 10 Clear CLR 82 78     88%   91 30.03 30.02      
Jul 20 21:53 Calm 10 Clear CLR 83 79     88%   94 30.03 30.02      
Jul 20 20:53 Calm 10 Clear CLR 85 79     82%   98 30.02 30.01      
Jul 20 19:53 SW 5 10 Clear CLR 90 76     64%   102 30 29.99      
Jul 20 18:53 WSW 5 10 Clear CLR 93 73     52%   102 30 29.99      
Jul 20 17:53 SW 6 10 Clear CLR 94 72     49%   102 30.01 30      
Jul 20 16:53 SSW 3 10 Clear CLR 95 70     44%   102 30.03 30.02      
Jul 20 15:53 WSW 6 10 Clear CLR 94 70     46%   100 30.04 30.03      
Jul 20 14:53 WSW 7 10 Clear CLR 94 73     51%   103 30.07 30.06      
Jul 20 13:53 6 10 Clear CLR 94 74     53%   104 30.09 30.08      
Jul 20 12:53 SSW 7 10 Clear CLR 93 75     56%   105 30.1 30.09      
Jul 20 11:53 SW 6 10 Clear CLR 92 75     58%   103 30.12 30.11      
Jul 20 10:53 WSW 5 10 Clear CLR 91 76     61%   103 30.13 30.11      
Jul 20 09:53 SW 6 10 Clear CLR 88 76     68%   99 30.12 30.11      
Jul 20 08:53 SSW 5 10 Clear CLR 85 76     75%   94 30.12 30.11      
Jul 20 07:53 WSW 3 10 Clear CLR 81 75     82%   87 30.13 30.12      
Jul 20 06:53 SSW 3 10 Clear CLR 77 74     90%   79 30.12 30.11      
Jul 20 04:53 Calm 5 Fog/Mist CLR 75 74     96%   77 30.1 30.09      
Jul 20 03:53 Calm 6 Fog/Mist CLR 76 75     97%   78 30.09 30.08      
Jul 20 02:53 ESE 3 7 Clear CLR 76 75     97%   78 30.09 30.08      
Jul 20 01:53 E 5 8 Clear CLR 77 75     94%   79 30.09 30.09      
Jul 20 00:53 Calm 10 Clear CLR 78 75     90%   80 30.1 30.09      
Jul 19 23:53 Calm 10 Clear CLR 79 76     90%   83 30.09 30.08      
Jul 19 22:53 Calm 10 Clear CLR 80 76     87%   85 30.09 30.08      
Jul 19 20:53 SE 6 10 Clear CLR 83 77     82%   92 30.06 30.05      
Jul 19 19:53 S 3 10 Clear CLR 89 77     68%   102 30.06 30.05      
Jul 19 18:53 SSE 5 10 Clear CLR 93 74     54%   103 30.05 30.04      
Jul 19 17:53 E 5 10 Clear   95 72     48%   104 30.06 30.05      
Jul 19 16:53 3 10 Clear CLR 95 70     44%   102 30.07 30.06      
Jul 19 15:53 5 10 Clear CLR 95 71     46%   103 30.09 30.08      
Jul 19 14:53 E 5 10 Partly Cloudy SCT049 93 73     52%   102 30.1 30.09      
Jul 19 13:53 Calm 10 Clear CLR 94 72     49%   102 30.13 30.12      
Jul 19 12:53 Calm 10 Mostly Cloudy BKN045 91 73     56%   100 30.14 30.13      
Jul 19 11:53 5 10 Mostly Clear FEW041 93 73     52%   102 30.15 30.14      
Jul 19 10:53 Calm 10 Clear CLR 90 73     58%   98 30.15 30.14      
Jul 19 09:53 WSW 3 10 Clear CLR 87 74     65%   95 30.15 30.14      
Jul 19 05:53 Calm 6 Fog/Mist CLR 73 72     96%   75 30.12 30.11      
Jul 19 04:53 Calm 7 Clear CLR 74 73     97%   76 30.1 30.09      
Jul 19 03:53 E 3 6 Fog/Mist CLR 74 73     97%   76 30.1 30.09      
Jul 19 02:53 Calm 5 Fog/Mist CLR 75 74     96%   77 30.09 30.08      
Jul 19 01:53 Calm 9 Clear CLR 75 73     94%   77 30.09 30.08      
Jul 19 00:53 Calm 10 Clear CLR 77 74     90%   79 30.09 30.08      
Jul 18 22:53 Calm 10 Clear CLR 78 74     87%   80 30.08 30.07      
Jul 18 21:53 Calm 10 Clear CLR 81 75     82%   87 30.07 30.06      
Jul 18 20:53 Calm 10 Clear CLR 82 75     79%   89 30.05 30.04      
Jul 18 19:53 E 5 10 Clear CLR 86 74     67%   94 30.03 30.02      
Jul 18 18:53 ENE 6 10 Clear CLR 91 72     54%   99 30.03 30.02      
Jul 18 17:53 ENE 6 10 Clear CLR 92 72     52%   100 30.02 30.01      
Jul 18 16:53 ENE 6 10 Clear CLR 92 71     51%   99 30.03 30.02      
Jul 18 15:53 NNE 5 10 Partly Cloudy SCT048 92 71     51%   99 30.05 30.04      
Jul 18 14:53 Calm 10 Mostly Cloudy BKN050 93 71     49%   100 30.06 30.05      
Jul 18 14:23 ENE 5 9 Partly Cloudy FEW003 FEW060 SCT070 91 72     54%   99 30.06        
Jul 18 13:53 NNW 6 10 Mostly Cloudy BKN044 BKN055 90 72     56%   97 30.07 30.06      
Jul 18 12:53 Calm 10 Mostly Clear FEW041 90 71     54%   96 30.07 30.06      
Jul 18 11:53 3 10 Clear CLR 90 71     54%   96 30.08 30.07      
Jul 18 11:11 E 5 8 Mostly Clear FEW002 89 69     52%   94 30.08        
Jul 18 10:53 E 3 10 Clear CLR 88 70     55%   93 30.08 30.07      
Jul 18 10:14 Calm 7 Mostly Clear FEW002 86 71     61%   92 30.08        
Jul 18 09:53 SSE 3 10 Clear CLR 85 72     65%   91 30.09 30.08      
Jul 18 08:53 Calm 10 Clear CLR 82 72     72%   87 30.08 30.07      
Jul 18 05:53 Calm 8 Clear CLR 71 69     93%   72 30.04 30.03      
Jul 18 03:53 NNW 5 8 Clear CLR 71 70     96%   72 30.01 30      
Jul 18 02:53 Calm 9 Clear CLR 72 70     93%   73 30 29.99      
Jul 18 01:53 Calm 10 Clear CLR 72 70     93%   73 30 29.99      
Jul 18 00:53 NNW 3 10 Clear CLR 72 70     93%   73 30 29.98      
Jul 17 22:53 Calm 10 Clear CLR 74 71     91%   75 29.99 29.98      
Jul 17 21:53 Calm 10 Clear CLR 77 71     82%   78 29.97 29.96      
Jul 17 20:53 Calm 10 Clear CLR 79 72     79%   82 29.96 29.95      
Jul 17 19:53 Calm 10 Clear CLR 85 71     63%   90 29.95 29.94      
Jul 17 17:53 E 3 10 Clear CLR 90 68     49%   94 29.95 29.94      
Jul 17 16:53 6 10 Clear CLR 90 67     47%   93 29.96 29.95      
Jul 17 14:53 N 5 10 Mostly Cloudy BKN050 90 69     50%   95 29.98 29.97      
Jul 17 13:53 Calm 10 Mostly Clear FEW050 89 67     48%   92 29.99 29.98      
Jul 17 12:53 E 6 10 Clear CLR 89 68     50%   93 30 29.99      
Jul 17 11:53 ENE 7 10 Clear CLR 89 69     52%   94 30.01 30      
Jul 17 10:53 E 8 10 Clear CLR 86 68     55%   89 30.01 30      
Jul 17 09:53 E 5 10 Clear CLR 84 69     61%   88 30 29.99      
Jul 17 08:53 NE 3 10 Clear CLR 81 70     69%   84 30.01 30      
Jul 17 07:53 N 3 8 Mostly Cloudy BKN050 76 72     88%   77 30 29.99      
Jul 17 06:53 Calm 7 Clear CLR 70 68     93%     29.99 29.98      
Jul 17 05:53 NNW 3 7 Clear CLR 69 68     96%     29.98 29.97      
Jul 17 04:53 N 5 4 Fog/Mist CLR 67 67     100%     29.96 29.95      
Jul 17 03:57 SW 3 4 Fog/Mist CLR 70 68     93%     29.95        
Jul 17 03:53 WSW 3 1.75 Fog/Mist CLR 70 69     97%     29.95 29.94      
Jul 17 03:48 Calm 1.75 Fog/Mist CLR 70 68     94%     29.95        
Jul 17 02:53 Calm 10 Clear CLR 71 69     93%   72 29.95 29.94      
Jul 17 01:53 Calm 10 Clear CLR 72 70     93%   73 29.95 29.94      
Jul 17 00:53 Calm 9 Clear CLR 73 71     94%   74 29.95 29.94      
Jul 16 23:53 Calm 10 Clear CLR 75 71     88%   76 29.96 29.95      
Jul 16 22:53 Calm 10 Clear CLR 75 72     90%   76 29.97 29.96      
Jul 16 21:53 Calm 10 Clear CLR 76 72     88%   77 29.95 29.94      
Jul 16 20:53 Calm 10 Clear CLR 80 73     79%   84 29.94 29.93      
Jul 16 19:53 NE 5 10 Clear CLR 83 72     70%   88 29.93 29.92      
Jul 16 18:53 ENE 5 10 Clear CLR 85 71     63%   90 29.93 29.92      
Jul 16 17:53 ENE 6 10 Clear CLR 88 70     55%   93 29.93 29.92      
Jul 16 16:53 NE 7 10 Clear CLR 89 69     52%   94 29.94 29.93      
Jul 16 15:53 N 6 10 Clear CLR 90 68     49%   94 29.95 29.94      
Jul 16 14:53 NE 9 10 Mostly Clear FEW043 91 70     50%   97 29.97 29.96      
Jul 16 13:53 ENE 10 10 Mostly Clear FEW035 89 72     57%   96 29.98 29.97      
Jul 16 12:53 NNE 6 10 Mostly Clear FEW030 88 74     63%   97 30 29.98      
Jul 16 11:53 NE 7 10 Clear CLR 86 74     67%   94 30.01 30      
Jul 16 10:53 ENE 8 10 Clear CLR 84 72     67%   90 30.02 30.01      
Jul 16 09:53 NE 7 10 Clear CLR 83 73     72%   89 30.02 30.01      
Jul 16 08:53 NE 5 10 Clear CLR 81 74     79%   86 30.03 30.02      
Jul 16 07:53 Calm 10 Clear CLR 77 74     90%   79 30.02 30.01      
Jul 16 07:08 Calm 10 Partly Cloudy SCT030 76 74     94%   78 30.02        
Jul 16 06:53 ESE 3 10 Mostly Cloudy BKN029 75 74     96%   77 30.02 30.01      
Jul 16 06:35 Calm 9 Mostly Cloudy BKN028 74 73     97%   76 30.01        
Jul 16 05:53 Calm 10 Clear CLR 73 72     96%   75 30.01 30      
Jul 16 04:53 Calm 10 Clear CLR 74 72     94%   75 30 29.99      
Jul 16 04:26 Calm 8 Partly Cloudy SCT028 74 72     94%   75 29.99        
Jul 16 04:18 Calm 8 Mostly Cloudy BKN028 73 72     96%   75 29.99        
Jul 16 03:53 Calm 10 Clear CLR 74 73     97%   76 29.99 29.98      
Jul 16 02:53 Calm 9 Clear CLR 76 74     94%   78 29.98 29.97      
Jul 16 01:53 ESE 3 7 Clear CLR 75 74     96%   77 29.99 29.98      
Jul 16 00:53 N 3 9 Clear CLR 75 74     96%   77 30 29.99      
Jul 15 23:53 Calm 10 Clear CLR 77 74     90%   79 30.01 30      
Jul 15 22:53 N 3 10 Clear CLR 76 74     94%   78 30 29.99      
Jul 15 21:53 Calm 10 Clear CLR 78 75     90%   80 30.01 30      
Jul 15 20:53 Calm 10 Clear CLR 79 76     90%   83 30 29.98      
Jul 15 19:53 S 5 10 Clear CLR 81 76     85%   87 29.99 29.98      
Jul 15 18:53 S 5 10 Mostly Clear FEW042 81 76     85%   87 29.98 29.97 0   0
Jul 15 17:53 E 7 10 Clear CLR 88 74     63%   97 29.98 29.97      
Jul 15 16:53 N 11 10 Partly Cloudy SCT038 SCT050 91 74     57%   101 29.98 29.97      
Jul 15 15:53 NNE 10 10 Clear CLR 91 75     60%   102 29.99 29.98      
Jul 15 14:53 7 10 Mostly Clear FEW031 90 76     64%   102 30.02 30.01      
Jul 15 13:53 7 10 Clear CLR 89 75     63%   99 30.03 30.02      
Jul 15 12:53 7 10 Clear CLR 88 76     68%   99 30.07 30.06      
Jul 15 11:53 NW 5 10 Partly Cloudy SCT020 86 75     70%   95 30.08 30.07      
Jul 15 10:53 NNW 8 10 Partly Cloudy SCT018 84 75     74%   92 30.09 30.08      
Jul 15 09:53 NW 5 10 Mostly Clear FEW013 81 74     79%   86 30.1 30.09      
Jul 15 08:53 3 8 Partly Cloudy SCT007 78 74     87%   80 30.11 30.1      
Jul 15 08:39 3 6 Fog/Mist SCT006 78 74     87%   80 30.11        
Jul 15 08:20 NNE 6 7 Mostly Cloudy BKN006 77 74     90%   79 30.11        
Jul 15 07:53 NNW 5 9 Mostly Clear FEW005 76 74     94%   78 30.11 30.1      
Jul 15 06:53 Calm 10 Clear CLR 74 72     94%   75 30.1 30.09      
Jul 15 05:53 Calm 10 Clear CLR 74 72     94%   75 30.09 30.08      
Jul 15 04:53 Calm 9 Clear CLR 73 72     96%   75 30.07 30.06      
Jul 15 03:53 Calm 9 Clear CLR 73 72     96%   75 30.06 30.05      
Jul 15 02:53 Calm 10 Clear CLR 74 72     94%   75 30.06 30.05      
Jul 15 01:53 Calm 10 Clear CLR 74 72     94%   75 30.06 30.06      
Jul 15 00:53 WNW 3 10 Clear CLR 74 72     94%   75 30.07 30.06      
Jul 14 23:53 Calm 10 Clear CLR 75 72     90%   76 30.09 30.08      
Jul 14 22:53 NNW 5 10 Clear CLR 75 72     90%   76 30.09 30.08      
Jul 14 21:53 Calm 10 Clear CLR 76 72     88%   77 30.09 30.08      
Jul 14 20:53 Calm 10 Clear CLR 77 72     84%   78 30.08 30.07      
Jul 14 19:53 NW 3 10 Clear CLR 79 72     79%   82 30.07 30.06      
Jul 14 18:53 NNW 7 10 Clear CLR 82 72     72%   87 30.05 30.04      
Jul 14 17:53 NNE 6 10 Clear CLR 81 72     74%   85 30.05 30.04      
Jul 14 17:10 W 14 10 Mostly Clear FEW060 84 71     65%   89 30.08        
Jul 14 16:53 WNW 16 10 Partly Cloudy FEW048 SCT060 SCT075 85 72     65%   91 30.08 30.07      
Jul 14 16:30 W 9 10 Clear CLR 83 72     70%   88 30.08        
Jul 14 15:53 W 10 10 Partly Cloudy SCT080 86 73     65%   93 30.08 30.07      
Jul 14 15:34 W 11 10 Partly Cloudy FEW040 FEW070 SCT110 87 74     65%   95 30.07        
Jul 14 15:17 WSW 6 10 Mostly Cloudy FEW040 SCT060 BKN075 87 74     65%   95 30.06        
Jul 14 15:00 WNW 7 10 Thunderstorms FEW039 SCT047 BKN060 87 76     70%   98 30.07        
Jul 14 14:53 Calm 10 Mostly Cloudy FEW037 SCT050 BKN060 89 74     61%   98 30.07 30.06      
Jul 14 14:39 S 5 10 Thunderstorms SCT038 SCT046 BKN075 90 75     62%   101 30.07        
Jul 14 14:25 ENE 7 10 Mostly Cloudy BKN036 91 75     60%   102 30.07        
Jul 14 13:53 SE 5 10 Partly Cloudy FEW032 SCT060 91 75     60%   102 30.07 30.06      
Jul 14 12:53 Calm 10 Cloudy SCT034 BKN042 OVC060 89 75     63%   99 30.1 30.09      
Jul 14 11:53 Calm 10 Mostly Clear FEW028 FEW047 89 76     65%   100 30.12 30.11      
Jul 14 10:53 SSW 6 10 Clear CLR 86 75     70%   95 30.13 30.12      
Jul 14 09:53 WNW 3 10 Clear CLR 83 75     77%   90 30.14 30.13      
Jul 14 08:53 Calm 10 Clear CLR 80 75     85%   85 30.14 30.13      
Jul 14 07:53 W 5 10 Mostly Cloudy FEW006 BKN043 76 73     91%   77 30.13 30.12      
Jul 14 07:49 SW 5 10 Partly Cloudy FEW006 SCT043 75 73     94%   77 30.13        
Jul 14 06:53 SSW 6 10 Clear CLR 74 72     94%   75 30.12 30.11      
Jul 14 05:53 S 3 9 Clear CLR 73 72     96%   75 30.11 30.1      
Jul 14 04:53 SSE 3 9 Clear CLR 74 73     97%   76 30.12 30.11      
Jul 14 03:53 SSE 5 8 Clear CLR 74 73     97%   76 30.11 30.11      
Jul 14 02:53 SSE 3 10 Clear CLR 75 73     94%   77 30.11 30.1      
Jul 14 01:53 Calm 10 Clear CLR 76 73     91%   77 30.12 30.11      
Jul 14 00:53 SW 6 10 Clear CLR 76 74     94%   78 30.12 30.11      
Jul 13 23:53 SSW 5 10 Clear CLR 77 73     88%   79 30.11 30.1      
Jul 13 22:53 SSW 6 10 Clear CLR 77 73     88%   79 30.11 30.1      
Jul 13 21:53 SSW 7 10 Clear CLR 79 74     85%   83 30.09 30.08      
Jul 13 20:53 S 10 10 Clear CLR 81 74     79%   86 30.06 30.05      
Jul 13 19:53 S 9 10 Clear CLR 83 74     74%   89 30.05 30.04      
Jul 13 18:53 SSE 6 10 Clear CLR 88 74     63%   97 30.05 30.04      
Jul 13 17:53 ESE 6 10 Mostly Clear FEW042 92 74     56%   102 30.06 30.05      
Jul 13 16:53 E 6 10 Mostly Cloudy BKN044 BKN085 92 73     54%   101 30.07 30.06      
Jul 13 15:53 Calm 10 Mostly Clear FEW050 FEW100 93 73     52%   102 30.07 30.06      
Jul 13 14:53 WSW 3 10 Clear CLR 91 73     56%   100 30.09 30.08      
Jul 13 13:53 5 10 Mostly Clear FEW036 90 75     62%   101 30.1 30.09      
Jul 13 12:53 6 10 Mostly Clear FEW032 88 74     63%   97 30.12 30.11      
Jul 13 11:53 WNW 5 10 Clear CLR 86 73     65%   93 30.15 30.14      
Jul 13 10:53 5 10 Clear CLR 85 74     70%   92 30.15 30.14      
Jul 13 07:53 SW 5 10 Clear CLR 76 72     88%   77 30.16 30.14      
Jul 13 06:53 SSW 3 10 Clear CLR 74 72     94%   75 30.14 30.13      
Jul 13 05:53 WSW 5 10 Clear CLR 74 72     94%   75 30.12 30.11      
Jul 13 04:53 S 5 10 Clear CLR 73 72     96%   75 30.11 30.1      
Jul 13 03:53 SSW 6 10 Clear CLR 74 73     97%   76 30.1 30.09      
Jul 13 02:53 SSW 6 10 Clear CLR 75 73     94%   77 30.09 30.08      
Jul 13 01:53 S 5 10 Clear CLR 75 73     94%   77 30.09 30.08      
Jul 13 00:53 SSW 5 10 Clear CLR 76 74     94%   78 30.08 30.07      
Jul 12 23:53 Calm 10 Clear CLR 77 74     90%   79 30.07 30.06      
Jul 12 22:53 SSW 3 10 Clear CLR 78 74     87%   80 30.07 30.06      
Jul 12 21:53 SSW 6 10 Clear CLR 80 75     85%   85 30.06 30.05      
Jul 12 20:53 S 9 10 Clear CLR 83 76     79%   91 30.05 30.04      
Jul 12 19:53 S 6 10 Clear CLR 86 75     70%   95 30.04 30.03      
Jul 12 18:53 S 7 10 Clear CLR 89 74     61%   98 30.03 30.01      
Jul 12 17:53 S 9 10 Clear CLR 90 74     59%   99 30.03 30.02      
Jul 12 15:53 7 10 Partly Cloudy SCT037 91 74     57%   101 30.05 30.04      
Jul 12 14:53 SSE 8 10 Partly Cloudy FEW035 FEW047 SCT070 91 75     60%   102 30.06 30.05      
Jul 12 12:53 S 8 10 Clear   88 73     61%   96 30.08 30.07      
Jul 10 14:53 SSW 8 10 Clear CLR 90 69     50%   95 30.01 30      
Jul 10 13:53 SSW 7 10 Mostly Clear FEW044 90 70     52%   95 30.02 30.01      
Jul 10 11:53 SSW 6 10 Mostly Clear FEW039 87 71     59%   93 30.05 30.04      
Jul 10 10:53 S 5 10 Clear CLR 86 71     61%   92 30.05 30.04      
Jul 10 09:53 S 5 10 Clear CLR 83 71     67%   88 30.06 30.05      
Jul 10 07:53 Calm 10 Clear CLR 75 71     88%   76 30.04 30.03      
Jul 10 05:53 Calm 10 Clear CLR 69 68     96%     30.03 30.02      
Jul 10 04:53 Calm 10 Clear CLR 70 68     93%     30.02 30.01      
Jul 10 03:53 Calm 10 Clear CLR 70 69     97%     30.01 30      
Jul 10 02:53 Calm 9 Clear CLR 70 69     97%     30.01 30      
Jul 10 01:53 Calm 10 Clear CLR 71 70     96%   72 30.02 30.01      
Jul 10 01:25 Calm 9 Clear CLR 71 70     96%   72 30.02        
Jul 10 01:17 Calm 2.5 Fog/Mist CLR 71 70     96%   72 30.02        
Jul 10 00:53 Calm 6 Fog/Mist CLR 71 70     96%   72 30.03 30.01      
Jul 09 23:53 Calm 10 Clear CLR 72 70     93%   73 30.03 30.02      
Jul 09 22:53 S 5 10 Clear CLR 75 72     90%   76 30.04 30.03      
Jul 09 21:53 Calm 10 Clear CLR 76 72     88%   77 30.03 30.02      
Jul 09 20:53 Calm 10 Clear CLR 78 73     85%   80 30.02 30.01      
Jul 09 19:53 Calm 10 Clear CLR 83 75     77%   90 30.02 30.01      
Jul 09 19:38 ESE 3 10 Mostly Clear FEW002 84 72     67%   90 30.01        
Jul 09 18:53 SE 7 10 Clear CLR 86 72     63%   92 30.02 30.01      
Jul 09 17:53 ESE 8 10 Clear CLR 88 71     57%   94 30.02 30.01      
Jul 09 15:53 E 7 10 Clear CLR 88 70     55%   93 30.05 30.04      
Jul 09 13:53 ESE 14 10 Clear CLR 88 68     52%   92 30.1 30.09      
Jul 09 12:53 ESE 10 10 Clear CLR 87 67     51%   90 30.1 30.09      
Jul 09 11:53 E 9 10 Clear CLR 86 70     59%   91 30.1 30.09      
Jul 09 09:53 E 8 10 Clear CLR 83 74     74%   89 30.11 30.09      
Jul 09 08:53 E 5 10 Clear CLR 82 75     79%   89 30.1 30.09      
Jul 09 07:53 Calm 8 Clear CLR 77 74     90%   79 30.1 30.09      
Notice The following observation data may not be complete
Jul 09 07:10   5 Fog/Mist CLR          %              
Jul 09 06:53 Calm 2.5 Fog/Mist FEW004 72 71     97%   73 30.09 30.08      
Jul 09 06:51 Calm 3 Fog/Mist FEW004 72 72     100%   73 30.09        
Jul 09 06:44 Calm 1.25 Fog/Mist FEW004 71 71     100%   73 30.08        
Jul 09 06:35 Calm 1 Fog/Mist VV004 71 70     96%   72 30.08        
Jul 09 06:30 Calm 0.5 Fog VV005 71 70     96%   72 30.09        
Jul 09 06:16 Calm 0.25 Fog VV004 71 71     100%   73 30.08        
Jul 09 06:02 Calm 1.75 Fog/Mist CLR 71 70     96%   72 30.09        
Jul 09 05:53 Calm 3 Fog/Mist FEW002 71 70     96%   72 30.08 30.07      
Jul 09 05:50 Calm 3 Fog/Mist FEW002 70 70     100%     30.08        
Jul 09 05:45 Calm 1.75 Fog/Mist FEW002 71 70     96%   72 30.08        
Jul 09 05:30 Calm 1 Fog/Mist VV002 71 70     96%   72 30.08        
Jul 09 05:00 Calm 0.5 Fog VV002 71 70     96%   72 30.07        
Jul 09 04:53 Calm 0.5 Fog CLR 71 70     96%   72 30.07 30.06      
Jul 09 04:47 Calm 1.75 Fog/Mist CLR 72 72     100%   73 30.07        
Jul 09 04:00 Calm 3 Fog/Mist CLR 73 72     96%   75 30.07        
Jul 09 03:53 Calm 1.5 Fog/Mist CLR 73 72     96%   75 30.07 30.06      
Jul 09 03:50 Calm 1.75 Fog/Mist CLR 73 72     94%   75 30.07        
Jul 09 02:53 Calm 10 Clear CLR 74 72     94%   75 30.07 30.06      
Jul 09 01:53 Calm 10 Clear CLR 75 72     90%   76 30.08 30.07      
Jul 09 00:53 Calm 10 Mostly Clear FEW025 76 74     94%   78 30.08 30.07      
Jul 09 00:43 WNW 3 10 Partly Cloudy SCT025 SCT032 76 74     94%   78 30.08        
Jul 09 00:21 WNW 3 10 Mostly Cloudy BKN025 BKN031 76 74     94%   78 30.08        
Jul 08 23:53 Calm 10 Clear CLR 75 73     94%   77 30.07 30.06      
Jul 08 22:53 Calm 10 Clear CLR 76 74     94%   78 30.06 30.05      
Jul 08 21:53 Calm 10 Clear CLR 78 74     87%   80 30.06 30.05      
Jul 08 20:53 Calm 10 Clear CLR 80 74     82%   85 30.05 30.04      
Jul 08 19:53 Calm 10 Clear CLR 83 76     79%   91 30.02 30.01      
Jul 08 19:23 E 3 10 Mostly Clear FEW002 84 73     70%   90 30.02        
Jul 08 18:53 ENE 3 10 Clear CLR 85 72     65%   91 30.01 30      
Jul 08 17:53 Calm 10 Mostly Clear FEW034 87 70     57%   92 30.02 30.01      
Jul 08 15:53 N 5 10 Clear CLR 86 68     55%   89 30.05 30.04      
Jul 08 14:53 WNW 8 10 Mostly Clear FEW030 84 69     61%   88 30.06 30.05      
Jul 08 13:53 NW 6 10 Clear CLR 83 69     63%   87 30.07 30.06      
Jul 08 13:26 N 7 10 Mostly Cloudy FEW020 SCT029 BKN035 82 71     69%   86 30.08        
Jul 08 12:53 Calm 10 Mostly Cloudy BKN029 BKN041 BKN050 81 72     74%   85 30.1 30.09     0
Jul 08 11:53 SE 3 10 Clear CLR 80 72     76%   84 30.1 30.09      
Jul 08 10:53 SSW 10 10 Clear CLR 78 72     82%   79 30.09 30.08      
Jul 08 09:53 WNW 11 10 Clear CLR 75 71     88%   76 30.1 30.09 0 0  
Jul 08 08:53 SSE 6 10 Light Rain BKN120 72 70     93%   73 30.09 30.08 0    
Jul 08 08:00 N 11 10 Light Rain SCT040 BKN090 OVC110 71 67     87%   72 30.08   0    
Jul 08 07:53 NNE 13 2.5 Light Rain and Fog/Mist BKN038 OVC085 70 67     90%     30.08 30.07 0    
Jul 08 07:43 N 18 1.75 Heavy Rain and Fog/Mist SCT040 OVC080 70 67     90%     30.09   0    
Jul 08 07:18 N 13 4 Light Rain and Fog/Mist SCT044 OVC070 70 68     93%     30.1   0    
Jul 08 06:53   3 Thunderstorms and Rain and Fog/Mist FEW016 BKN036 OVC060 71 68     90%   72 30.1 30.09 0   0
Jul 08 06:48   4 Thunderstorms and Heavy Rain and Fog/Mist FEW016 BKN034 OVC055 72 68     88%   73 30.11   0    
Jul 08 06:37   10 Thunderstorms and Rain FEW016 BKN025 OVC090 73 68     84%   74 30.09   0    
Jul 08 04:53 SW 6 10 Clear CLR 76 71     85%   77 29.99 29.98      
Jul 08 03:53 ESE 3 10 Mostly Clear FEW080 75 71     88%   76 30 29.99 0 0  
Jul 08 02:53 NNE 5 10 Mostly Cloudy SCT048 SCT060 BKN080 80 74     82%   85 30.01 30      
Jul 08 01:53 SW 5 10 Clear CLR 80 74     82%   85 29.98 29.97      
Jul 08 00:53 WSW 5 10 Partly Cloudy SCT110 80 75     85%   85 30 29.99      
Jul 07 23:53 SW 3 10 Clear CLR 80 75     85%   85 30 29.99      
Jul 07 22:53 SW 5 10 Clear CLR 82 76     82%   89 30 29.99      
Jul 07 21:53 SW 5 10 Clear CLR 83 76     79%   91 30 29.99      
Jul 07 20:53 SW 5 10 Clear CLR 84 77     80%   94 29.99 29.98      
Jul 07 19:53 SW 5 10 Clear CLR 88 75     66%   98 29.98 29.97      
Jul 07 17:53 WSW 6 10 Mostly Clear FEW046 91 73     56%   100 29.98 29.97      
Jul 07 15:53 WSW 9 10 Clear CLR 92 72     52%   100 30 29.99      
Jul 07 14:53 5 10 Clear CLR 91 72     54%   99 30.02 30.01      
Jul 07 13:53 W 9 10 Clear CLR 91 72     54%   99 30.04 30.03      
Jul 07 12:53 SW 7 10 Mostly Clear FEW055 89 74     61%   98 30.06 30.06      
Jul 07 11:53 SW 5 10 Mostly Clear FEW027 87 76     70%   98 30.08 30.07      
Jul 07 10:53 SSW 5 10 Clear CLR 85 77     77%   95 30.09 30.08      
Jul 07 09:53 SW 6 10 Mostly Clear FEW011 82 76     82%   89 30.09 30.08      
Jul 07 07:53 WSW 3 8 Cloudy OVC005 77 75     94%   79 30.08 30.07      
Jul 07 07:22 WSW 6 6 Fog/Mist OVC005 76 74     94%   78 30.07        
Jul 07 06:53 W 5 5 Fog/Mist OVC004 76 74     94%   78 30.07 30.06     0
Jul 07 05:53 W 7 6 Fog/Mist OVC004 76 75     97%   78 30.06 30.05      
Jul 07 05:25 W 8 6 Fog/Mist OVC004 76 74     94%   78 30.05        
Jul 07 05:17 WSW 7 7 Mostly Cloudy BKN006 76 74     94%   78 30.05        
Jul 07 05:05 W 6 8 Partly Cloudy SCT006 SCT075 76 74     94%   78 30.05        
Jul 07 04:53 W 5 8 Partly Cloudy SCT080 76 74     94%   78 30.05 30.04      
Jul 07 03:53 SW 5 10 Partly Cloudy SCT090 76 75     97%   78 30.05 30.03   0  
Jul 07 02:53 SW 5 7 Partly Cloudy SCT090 77 75     94%   79 30.04 30.03      
Jul 07 01:53 Calm 9 Clear CLR 78 76     93%   80 30.05 30.03 0    
Jul 07 01:11 Calm 10 Mostly Clear FEW009 77 75     94%   79 30.04        
Jul 07 00:53 Calm 10 Clear CLR 77 75     94%   79 30.04 30.03      
Jul 07 00:27 W 3 10 Partly Cloudy SCT012 78 76     93%   80 30.04        
Jul 07 00:11 Calm 10 Mostly Cloudy BKN013 79 75     88%   83 30.05        
Jul 06 23:53 Calm 10 Mostly Cloudy BKN016 78 75     90%   80 30.06 30.05      
Jul 06 23:48 E 3 10 Mostly Cloudy BKN016 79 75     89%   82 30.06        
Jul 06 23:17 E 5 10 Cloudy SCT022 BKN032 OVC039 79 75     88%   83 30.07        
Jul 06 22:53 Calm 10 Cloudy BKN021 BKN044 OVC055 80 76     87%   85 30.07 30.06      
Jul 06 22:49 SE 6 10 Cloudy BKN021 BKN044 OVC055 81 75     84%   86 30.07        
Jul 06 22:42 ENE 5 10 Mostly Cloudy SCT022 BKN044 BKN055 80 77     90%   86 30.08        
Jul 06 21:53 Calm 10 Mostly Cloudy BKN110 80 78     94%   86 30.05 30.04      
Jul 06 20:53 Calm 10 Clear CLR 82 78     88%   91 30.04 30.03      
Jul 06 19:53 SSW 5 10 Clear CLR 84 76     77%   93 30.02 30.01      
Jul 06 19:36 SSW 7 10 Mostly Clear FEW002 84 77     80%   94 30.01        
Jul 06 18:53 SW 8 10 Clear CLR 86 76     72%   96 30.01 30      
Jul 06 17:53 SW 7 10 Clear CLR 87 75     68%   97 30.01 30      
Jul 06 16:53 SSW 9 10 Mostly Clear FEW037 88 75     66%   98 30.02 30.01      
Jul 06 15:53 SSW 10 10 Mostly Clear FEW034 FEW041 88 75     66%   98 30.04 30.03      
Jul 06 14:53 SW 9 10 Mostly Clear FEW031 87 74     65%   95 30.06 30.05      
Jul 06 13:53 SW 9 10 Clear CLR 86 74     67%   94 30.08 30.07      
Jul 05 17:53 WSW 10 10 Clear CLR 85 68     57%   88 30.02 30.01      
Jul 05 16:53 WSW 8 10 Partly Cloudy SCT080 85 69     59%   89 30.03 30.01      
Jul 05 15:53 WSW 8 10 Mostly Clear FEW095 85 71     63%   90 30.04 30.03      
Jul 05 14:53 WSW 11 10 Clear CLR 84 72     67%   90 30.03 30.02      
Jul 05 13:53 SSW 7 10 Clear CLR 82 71     69%   86 30.02 30.01      
Jul 05 12:53 W 6 10 Clear CLR 78 69     74%   79 30.04 30.03      
Jul 05 11:53 WSW 9 10 Mostly Cloudy BKN042 79 69     72%   80 30.09 30.08      
Jul 05 10:53 SW 13 10 Mostly Clear FEW085 80 70     71%   83 30.09 30.08      
Jul 05 09:53 SSW 8 10 Clear CLR 77 72     84%   78 30.07 30.06      
Jul 05 08:53 SSW 6 10 Mostly Clear FEW032 75 71     88%   76 30.07 30.06      
Jul 05 08:03 WNW 7 10 Mostly Cloudy FEW011 SCT016 BKN032 75 72     90%   76 30.06        
Jul 05 07:53 WNW 9 10 Mostly Cloudy FEW011 BKN017 BKN032 75 72     90%   76 30.06 30.05      
Jul 05 07:40 W 14 10 Cloudy SCT011 BKN017 OVC095 75 73     94%   77 30.07        
Jul 05 06:53 SSW 9 10 Partly Cloudy SCT095 75 73     94%   77 30.03 30.02      
Jul 05 05:53 SSW 7 10 Clear CLR 75 72     90%   76 30.01 30      
Jul 05 04:53 S 6 10 Clear CLR 74 72     94%   75 30 29.98      
Jul 05 03:53 SSW 6 10 Clear CLR 74 72     94%   75 29.99 29.98      
Jul 05 02:53 S 5 10 Clear CLR 74 73     97%   76 29.99 29.98      
Jul 05 01:53 S 6 10 Clear CLR 76 73     91%   77 30 29.99      
Jul 05 00:53 SSW 6 10 Clear CLR 77 74     90%   79 30 29.99      
Jul 04 23:53 S 7 10 Clear CLR 78 76     93%   80 30.01 30      
Jul 04 22:53 SSE 3 10 Clear CLR 79 77     94%   83 30 29.99      
Jul 04 21:53 SSE 3 10 Clear CLR 80 77     90%   86 29.98 29.97      
Jul 04 20:53 ESE 3 10 Clear CLR 79 77     94%   83 29.96 29.95      
Jul 04 19:53 Calm 10 Mostly Clear FEW029 80 77     90%   86 29.96 29.95      
Jul 04 18:53 N 3 10 Mostly Clear FEW050 78 75     90%   80 29.96 29.95 0   0
Jul 04 18:43 NNW 3 10 Mostly Clear FEW075 78 74     87%   80 29.96   0    
Jul 04 18:33 WSW 3 10 Mostly Clear FEW070 FEW090 78 74     87%   80 29.96   0    
Jul 04 17:53 SSW 11 10 Thunderstorms FEW026 FEW035 85 75     72%   93 29.95 29.94      
Jul 04 17:41 SSW 11 10 Mostly Clear FEW035 86 76     72%   96 29.94        
Jul 04 16:53 SSW 16 10 Clear CLR 87 74     65%   95 29.95 29.94      
Jul 04 15:53 S 10 10 Mostly Clear FEW036 89 76     65%   100 29.97 29.96      
Jul 04 14:53 S 13 10 Partly Cloudy SCT033 88 75     66%   98 29.98 29.96      
Jul 04 13:53 S 13 10 Partly Cloudy SCT029 SCT035 87 77     72%   99 29.98 29.97      
Jul 04 12:53 S 13 10 Partly Cloudy SCT026 SCT034 86 76     72%   96 30.01 30      
Jul 04 11:53 S 11 10 Mostly Clear FEW022 FEW029 85 76     75%   94 30.03 30.02      
Jul 04 10:53 SSW 11 10 Clear CLR 84 75     74%   92 30.02 30.01      
Jul 04 10:33 S 10 10 Mostly Clear FEW018 83 75     77%   90 30.02        
Jul 04 09:53 SSW 11 10 Mostly Cloudy BKN015 83 76     79%   91 30.02 30.01      
Jul 04 09:39 SSW 9 10 Mostly Cloudy BKN015 81 75     82%   87 30.02        
Jul 04 08:53 S 8 10 Clear CLR 79 75     88%   83 30.02 30.01      
Jul 04 08:49 SSW 8 10 Mostly Clear FEW009 79 75     89%   82 30.02        
Jul 04 07:53 SSW 7 10 Clear CLR 77 74     90%   79 30.02 30.01      
Jul 04 06:53 SSW 5 10 Mostly Cloudy SCT055 BKN100 76 74     94%   78 30.01 30      
Jul 04 05:53 SSW 6 10 Clear CLR 76 73     91%   77 29.99 29.98      
Jul 04 04:53 SSE 3 10 Clear CLR 75 73     94%   77 29.98 29.97      
Jul 04 03:53 S 3 10 Clear CLR 75 73     94%   77 29.98 29.97      
Jul 04 00:53 Calm 10 Cloudy OVC085 77 75     94%   79 30.01 30 0   0
Jul 03 23:53 Calm 10 Cloudy OVC080 77 75     94%   79 30 29.99      
Jul 03 22:53 Calm 10 Cloudy OVC075 77 75     94%   79 30 29.99      
Jul 03 21:53 Calm 10 Mostly Cloudy BKN070 78 74     87%   80 30 29.99      
Jul 03 20:53 S 3 10 Clear CLR 78 74     87%   80 29.99 29.98      
Jul 03 19:53 SW 5 10 Clear CLR 81 73     77%   86 29.99 29.98      
Jul 03 18:53 SW 8 10 Mostly Clear FEW036 83 72     70%   88 29.99 29.98      
Jul 03 17:53 WSW 8 10 Clear CLR 84 71     65%   89 29.99 29.98      
Jul 03 16:53 SSW 9 10 Clear CLR 84 72     67%   90 30 29.99      
Jul 03 15:53 S 3 10 Clear CLR 83 71     67%   88 30.01 30      
Jul 03 14:53 SW 9 10 Clear CLR 80 70     71%   83 30.03 30.02      
Jul 03 13:53 WSW 7 10 Mostly Clear FEW023 79 70     74%   82 30.04 30.03      
Jul 03 12:53 W 8 10 Clear CLR 79 69     72%   80 30.06 30.05 0   0
Jul 03 12:07 WSW 7 10 Mostly Cloudy SCT029 SCT038 BKN049 77 69     77%   78 30.08   0    
Jul 03 11:53 WSW 9 10 Light Rain BKN029 OVC037 76 69     79%   77 30.09 30.08 0    
Jul 03 11:20 W 8 10 Mostly Cloudy SCT018 BKN026 77 70     79%   78 30.08        
Jul 03 10:53 W 10 10 Clear CLR 77 70     79%   78 30.07 30.06      
Jul 03 09:53 SW 5 10 Mostly Clear FEW027 74 70     87%   75 30.08 30.06      
Jul 03 09:51 W 6 10 Partly Cloudy SCT027 73 70     89%   75 30.08        
Jul 03 09:36 WSW 7 10 Mostly Cloudy BKN026 BKN032 74 70     87%   75 30.09        
Jul 03 08:53 SW 8 10 Partly Cloudy SCT034 74 70     87%   75 30.08 30.07      
Jul 03 07:53 SSW 8 10 Clear CLR 73 70     90%   74 30.06 30.05      
Jul 03 06:53 WSW 6 10 Clear CLR 72 70     93%   73 30.04 30.03     0
Jul 03 05:53 SE 6 10 Clear CLR 72 70     93%   73 30 29.99 0    
Jul 03 05:21 SE 8 10 Light Rain BKN110 72 70     93%   73 30   0    
Jul 03 04:55 WSW 9 6 Thunderstorms and Rain and Fog/Mist SCT031 BKN039 OVC110 72 70     93%   73 30.03   0    
Jul 03 04:53 WSW 9 2.5 Thunderstorms and Rain and Fog/Mist BKN029 BKN046 OVC110 72 70     93%   73 30.03 30.02 0    
Jul 03 04:49 WSW 10 1.5 Thunderstorms and Heavy Rain and Fog/Mist BKN026 BKN039 OVC050 72 70     94%   73 30.02   0    
Jul 03 04:42   1.75 Thunderstorms and Heavy Rain and Fog/Mist SCT021 BKN035 OVC060 73 70     90%   74 30.04   0    
Jul 03 04:39   2.5 Thunderstorms and Heavy Rain and Fog/Mist SCT023 BKN046 OVC060 74 71     91%   75 30.03   0    
Jul 03 04:31   10 Light Rain FEW023 BKN048 OVC060 76 71     85%   77 30.04   0    
Jul 03 03:53 S 6 10 Clear CLR 76 73     91%   77 30.01 30      
Jul 03 02:53 S 7 10 Mostly Cloudy BKN060 76 73     91%   77 30.02 30.01      
Jul 03 01:53 SSE 3 10 Clear CLR 75 74     96%   77 30.03 30.02      
Jul 03 00:53 S 5 10 Clear CLR 76 74     94%   78 30.04 30.03      
Jul 02 23:53 S 6 10 Clear CLR 77 74     90%   79 30.05 30.04      
Jul 02 22:53 SSE 3 10 Clear CLR 77 75     94%   79 30.05 30.04      
Jul 02 21:53 S 5 10 Clear CLR 78 75     90%   80 30.05 30.04      
Jul 02 20:53 SSE 6 10 Clear CLR 80 76     87%   85 30.03 30.03      
Jul 02 19:53 S 7 10 Clear CLR 82 76     82%   89 30.03 30.02      
Jul 02 18:53 SSW 8 10 Mostly Clear FEW035 86 75     70%   95 30.04 30.03      
Jul 02 17:53 7 10 Mostly Clear FEW034 88 75     66%   98 30.04 30.03      
Jul 02 16:53 S 8 10 Mostly Clear FEW032 88 75     66%   98 30.06 30.05      
Jul 02 15:53 SW 7 10 Mostly Cloudy SCT033 BKN041 BKN047 87 74     65%   95 30.09 30.08      
Jul 02 14:53 W 9 10 Partly Cloudy SCT033 86 73     65%   93 30.11 30.1      
Jul 02 13:53 W 7 10 Mostly Cloudy SCT024 BKN033 86 74     67%   94 30.13 30.11      
Jul 02 13:24 W 7 10 Mostly Cloudy BKN032 84 74     72%   91 30.14        
Jul 02 12:53 W 8 10 Cloudy OVC026 82 73     74%   87 30.15 30.14      
Jul 02 12:09 WSW 8 10 Mostly Cloudy BKN026 BKN031 82 72     72%   87 30.16        
Jul 02 11:53 SW 7 10 Mostly Cloudy FEW024 BKN031 BKN043 82 73     74%   87 30.16 30.15      
Jul 02 10:53 SW 8 10 Mostly Cloudy SCT013 BKN031 BKN040 78 72     82%   79 30.16 30.15      
Jul 02 10:11 SW 6 10 Cloudy BKN010 OVC028 76 71     85%   77 30.17        
Jul 02 09:53 WSW 6 10 Cloudy OVC008 75 71     88%   76 30.16 30.16      
Jul 02 08:53 SW 7 10 Cloudy OVC008 73 70     90%   74 30.17 30.16      
Jul 02 07:53 WSW 9 10 Mostly Cloudy BKN008 72 69     91%   73 30.15 30.15      
Jul 02 07:51 W 6 10 Mostly Cloudy BKN008 72 70     94%   73 30.15        
Jul 02 06:53 SW 3 10 Clear CLR 69 68     96%     30.13 30.12      
Jul 02 05:53 SSW 3 10 Clear CLR 69 68     96%     30.11 30.1      
Jul 02 05:07 SSW 3 10 Mostly Clear FEW007 FEW065 69 68     96%     30.09        
Jul 02 04:53 SW 3 10 Mostly Clear FEW065 69 68     96%     30.09 30.08      
Jul 02 03:53 S 6 10 Clear CLR 69 68     96%     30.08 30.07      
Jul 02 02:53 S 5 10 Clear CLR 69 67     93%     30.08 30.06      
Jul 02 01:53 SW 3 10 Clear CLR 69 68     96%     30.08 30.07      
Jul 02 00:53 SW 6 10 Clear CLR 70 68     93%     30.08 30.07     0
Jul 01 23:53 SSW 3 10 Clear CLR 70 68     93%     30.08 30.07      
Jul 01 22:53 SW 5 10 Clear CLR 70 68     93%     30.09 30.08      
Jul 01 21:53 SSW 5 10 Clear CLR 70 67     90%     30.08 30.08   0  
Jul 01 20:53 SSW 5 10 Clear CLR 70 68     93%     30.07 30.06 0    
Jul 01 19:53 SSE 5 10 Light Rain FEW110 69 68     96%     30.07 30.06 0    
Jul 01 19:07 S 7 10 Light Rain FEW049 SCT075 OVC110 70 68     93%     30.11   0    
Jul 01 18:53 SW 6 5 Light Rain and Fog/Mist BKN049 OVC075 69 68     96%     30.1 30.09 0   0
Jul 01 18:38 W 10 2 Heavy Rain and Fog/Mist FEW035 BKN042 OVC065 70 67     90%     30.09   0    
Jul 01 18:28 WSW 16 5 Thunderstorms and Rain and Fog/Mist FEW017 BKN048 OVC070 71 67     87%   72 30.1   0    
Jul 01 18:13 SW 25 10 Mostly Cloudy and Windy FEW036 SCT060 BKN075 83 71     67%   88 30.08        
Jul 01 17:53 WSW 6 10 Partly Cloudy SCT060 86 72     63%   92 30.04 30.03      
Jul 01 16:53 SW 7 10 Mostly Clear FEW070 88 72     59%   95 30.04 30.03      
Jul 01 15:53 SW 7 10 Clear CLR 88 70     55%   93 30.02 30.01      
Jul 01 14:53 W 3 10 Clear CLR 87 71     59%   93 30.05 30.04      
Jul 01 13:53 3 10 Clear CLR 86 72     63%   92 30.07 30.06      
Jul 01 12:53 ENE 5 10 Mostly Clear FEW110 84 70     63%   88 30.08 30.07     0
Jul 01 11:53 Calm 10 Mostly Clear FEW100 81 67     62%   83 30.1 30.09      
Jul 01 10:53 N 7 10 Clear CLR 79 70     74%   82 30.1 30.09      
Jul 01 09:53 N 6 10 Clear CLR 76 70     82%   77 30.09 30.08 0 0  
Jul 01 08:43 SSE 9 10 Light Rain SCT005 SCT080 BKN110 72 70     93%   73 30.05   0    
Jul 01 07:53 SE 5 10 Mostly Clear FEW100 71 69     93%   72 30.04 30.03      
Jul 01 06:53 Calm 10 Clear CLR 71 68     90%   72 30.04 30.03     0
Jul 01 06:35 W 3 10 Partly Cloudy FEW010 SCT019 71 68     90%   72 30.06        
Jul 01 06:28 W 5 10 Mostly Cloudy SCT010 BKN019 71 69     93%   72 30.07        
Jul 01 06:18 W 7 10 Cloudy BKN010 OVC019 71 69     93%   72 30.07        
Jul 01 05:53 W 9 10 Mostly Cloudy BKN009 70 68     93%     30.06 30.05      
Jul 01 05:24 NW 11 10 Mostly Clear FEW008 70 68     93%     30.03        
Jul 01 04:53 WNW 9 10 Clear CLR 69 68     96%     29.99 29.98      
Jul 01 03:53 S 7 10 Partly Cloudy SCT120 69 68     96%     29.97 29.96   0  
Jul 01 02:37 SW 3 10 Clear CLR 70 67     90%     30   0    
Jul 01 02:22 Calm 10 Partly Cloudy FEW017 FEW090 SCT110 70 66     87%     30   0    
Jul 01 01:53 N 10 5 Light Rain and Fog/Mist BKN048 BKN055 OVC085 70 66     87%     30.04 30.03 0    
Jul 01 01:38 NNW 20 2.5 Thunderstorms and Heavy Rain and Fog/Mist FEW015 SCT037 BKN060 70 67     90%     30.09   0    
Jul 01 00:53 S 5 10 Clear CLR 77 75     94%   79 30.02 30.01      
Jul 01 00:03 SE 3 10 Mostly Cloudy FEW027 BKN042 78 75     90%   80 30.03        
Jun 30 23:53 S 3 10 Mostly Cloudy BKN027 BKN038 78 75     90%   80 30.03 30.02      
Jun 30 23:39 Calm 10 Mostly Cloudy BKN027 79 75     88%   83 30.03        
Jun 30 23:32 Calm 10 Partly Cloudy SCT028 79 75     88%   83 30.03        
Jun 30 22:53 Calm 10 Mostly Cloudy BKN046 BKN060 78 75     90%   80 30.01 30      
Jun 30 21:53 Calm 10 Clear CLR 78 75     90%   80 29.97 29.96      
Jun 30 20:53 NNE 3 10 Clear CLR 78 74     87%   80 29.94 29.93      
Jun 30 19:53 Calm 10 Clear CLR 83 73     72%   89 29.92 29.91      
Jun 30 18:53 SSW 14 10 Clear CLR 85 72     65%   91 29.88 29.87     0
Jun 30 17:53 S 14 10 Clear CLR 86 72     63%   92 29.9 29.89      
Jun 30 16:53 SSW 11 10 Clear CLR 87 73     63%   95 29.93 29.92      
Jun 30 15:53 SSE 9 10 Clear CLR 87 72     61%   94 29.94 29.93   0  
Jun 30 14:53 SSE 9 10 Clear CLR 83 71     67%   88 29.95 29.94 0    
Jun 30 13:53 5 10 Light Rain FEW046 81 70     69%   84 30.02 30.01 0    
Jun 30 13:20 NNW 7 10 Mostly Cloudy FEW033 SCT075 BKN085 79 71     77%   82 30.05   0    
Jun 30 13:03 6 10 Light Rain FEW034 SCT050 BKN075 78 71     79%   79 30.05   0    
Jun 30 12:53 N 8 10 Light Rain FEW041 BKN060 OVC075 76 71     85%   77 30.04 30.03 0   0
Jun 30 12:45 NNW 7 10 Light Rain SCT050 BKN065 OVC080 75 70     84%   76 30.05   0    
Jun 30 12:30 NNW 10 10 Light Rain FEW025 BKN050 OVC060 74 71     91%   75 30.06   0    
Jun 30 12:20 NNW 10 3 Light Rain and Fog/Mist FEW022 BKN040 OVC070 73 70     90%   74 30.06   0    
Jun 30 12:14 NNW 14 1.75 Heavy Rain and Fog/Mist SCT024 BKN031 OVC070 72 69     91%   73 30.05   0    
Jun 30 12:00 NNW 16 10 Cloudy SCT025 BKN030 OVC043 76 67     74%   77 30.05        
Jun 30 11:53 NW 16 10 Cloudy BKN025 BKN030 OVC037 78 67     69%   79 30.05 30.04      
Jun 30 10:53 SW 9 10 Partly Cloudy FEW025 SCT034 SCT047 86 76     72%   96 30 29.99      
Jun 30 09:53 WSW 9 10 Mostly Cloudy BKN018 81 74     79%   86 30 29.99      
Jun 30 09:29 SW 7 10 Mostly Cloudy BKN015 BKN026 82 75     79%   89 29.99        
Jun 30 09:22 SW 11 10 Cloudy BKN014 BKN026 OVC039 81 75     82%   87 29.99        
Jun 30 08:53 SSW 8 10 Cloudy OVC035 79 75     88%   83 29.99 29.98      
Jun 30 08:24 SSW 7 10 Cloudy FEW012 OVC030 79 75     88%   83 29.99        
Jun 30 07:53 SSW 5 10 Cloudy SCT021 OVC026 78 75     90%   80 29.98 29.97      
Jun 30 07:19 S 7 9 Cloudy FEW010 OVC017 77 75     94%   79 29.96        
Jun 30 06:53 SSW 7 5 Fog/Mist OVC010 77 75     94%   79 29.97 29.96      
Jun 30 06:30 SSW 7 10 Cloudy OVC010 77 74     90%   79 29.96        
Jun 30 05:53 S 9 10 Cloudy OVC008 77 74     90%   79 29.95 29.93      
Jun 30 05:22 SSW 7 10 Cloudy OVC009 77 74     90%   79 29.93        
Jun 30 04:53 S 9 10 Cloudy OVC010 77 74     90%   79 29.93 29.91      
Jun 30 04:01 S 9 10 Cloudy OVC010 77 74     90%   79 29.92        
Jun 30 03:53 SSW 9 10 Cloudy OVC009 77 74     90%   79 29.92 29.91      
Jun 30 02:53 S 10 10 Cloudy OVC007 76 74     94%   78 29.89 29.88      
Jun 30 01:53 S 8 10 Cloudy OVC007 76 74     94%   78 29.91 29.9      
Jun 30 01:02 SSE 6 10 Mostly Cloudy BKN008 75 74     96%   77 29.92        
Jun 30 00:53 SSE 6 10 Partly Cloudy SCT009 75 73     94%   77 29.92 29.91      
Jun 30 00:33 SSE 6 10 Mostly Clear FEW009 75 73     94%   77 29.92        
Jun 29 23:53 SSE 6 10 Clear CLR 76 74     94%   78 29.91 29.9      
Jun 29 22:53 SSE 6 10 Clear CLR 77 74     90%   79 29.9 29.89      
Jun 29 21:53 SE 7 10 Clear CLR 77 74     90%   79 29.89 29.88      
Jun 29 20:53 SSE 5 10 Clear CLR 79 74     85%   83 29.88 29.86      
Jun 29 19:53 S 9 10 Clear CLR 83 72     70%   88 29.88 29.87      
Jun 29 18:53 SSE 6 10 Clear CLR 85 74     70%   92 29.89 29.88      
Jun 29 17:53 5 10 Mostly Cloudy FEW037 FEW049 BKN070 87 73     63%   95 29.9 29.89      
Jun 29 16:53 S 8 10 Mostly Cloudy FEW031 SCT040 BKN075 87 73     63%   95 29.91 29.9      
Jun 29 15:53 S 8 10 Partly Cloudy SCT033 SCT045 86 72     63%   92 29.91 29.9      
Jun 29 14:53 SSE 7 10 Partly Cloudy SCT065 86 73     65%   93 29.92 29.91      
Jun 29 13:53 SSE 7 10 Partly Cloudy FEW030 SCT036 SCT044 84 71     65%   89 29.93 29.92      
Jun 29 12:53 SW 10 10 Cloudy BKN047 OVC055 83 72     70%   88 29.96 29.95      
Jun 29 12:33 S 11 10 Cloudy SCT028 OVC043 83 71     67%   88 29.97        
Jun 29 12:09 SSW 10 10 Mostly Cloudy BKN026 BKN039 BKN060 81 71     72%   85 29.97        
Jun 29 11:53 SSE 11 10 Cloudy FEW026 BKN046 OVC060 84 72     67%   90 29.97 29.96      
Jun 29 11:06 S 9 10 Mostly Cloudy FEW021 BKN035 81 71     72%   85 29.97        
Jun 29 10:53 S 10 10 Mostly Cloudy SCT021 BKN029 BKN034 80 72     76%   84 29.97 29.96      
Jun 29 09:53 S 11 10 Cloudy BKN020 OVC027 78 71     79%   79 29.97 29.96      
Jun 29 09:03 S 8 10 Clear   77 71     82%   78 29.97        
Jun 29 08:53 SSE 10 10 Clear   77 72     84%   78 29.97 29.96      
Jun 29 08:18 S 7 10 Cloudy BKN014 OVC019 74 71     91%   75 29.97        
Jun 29 07:53 S 8 10 Cloudy FEW008 OVC023 74 71     91%   75 29.97 29.96      
Jun 29 07:21 SSE 7 10 Mostly Cloudy FEW007 BKN025 73 71     94%   74 29.97        
Jun 29 07:13 SSE 7 10 Mostly Cloudy BKN023 73 71     94%   74 29.97        
Jun 29 06:53 SSE 7 10 Partly Cloudy SCT021 72 70     93%   73 29.97 29.96      
Jun 29 05:32 SSE 8 10 Mostly Clear FEW005 72 70     93%   73 29.97        
Jun 29 03:53 SSE 8 10 Partly Cloudy SCT014 72 70     93%   73 29.95 29.94      
Jun 29 03:40 SSE 6 10 Mostly Cloudy BKN013 72 70     93%   73 29.96        
Jun 29 02:53 SE 5 10 Clear CLR 72 70     93%   73 29.95 29.94      
Jun 29 01:53 S 5 10 Clear CLR 73 69     87%   74 29.95 29.94      
Jun 29 00:53 S 7 10 Clear CLR 74 69     85%   75 29.95 29.94      
Jun 28 23:53 SSE 7 10 Clear CLR 75 69     82%   76 29.94 29.93      
Jun 28 22:53 SE 5 10 Clear CLR 74 72     94%   75 29.94 29.93      
Jun 28 21:53 ESE 5 10 Clear CLR 75 71     88%   76 29.94 29.93      
Jun 28 20:53 ESE 6 10 Clear CLR 77 70     79%   78 29.93 29.92      
Jun 28 19:53 SE 7 10 Clear CLR 81 69     67%   84 29.93 29.92      
Jun 28 18:53 SE 10 10 Clear CLR 84 69     61%   88 29.93 29.92      
Jun 28 17:53 SE 13 10 Mostly Clear FEW049 86 69     57%   90 29.94 29.93      
Jun 28 16:53 SE 10 10 Mostly Clear FEW045 87 69     55%   91 29.96 29.95      
Jun 28 15:53 ESE 11 10 Partly Cloudy SCT045 86 70     59%   91 29.96 29.95      
Jun 28 14:53 S 10 10 Mostly Clear FEW044 86 68     55%   89 29.98 29.97      
Jun 28 13:53 SSE 8 10 Mostly Cloudy SCT045 BKN060 85 69     59%   89 30 29.99      
Jun 28 12:53 S 8 10 Partly Cloudy FEW043 SCT050 86 69     57%   90 30.02 30.01      
Jun 28 11:53 SSW 9 10 Mostly Clear FEW043 84 66     55%   86 30.02 30.01      
Jun 28 10:53 S 7 10 Clear CLR 83 66     57%   85 30.04 30.03      
Jun 28 09:53 S 7 10 Clear CLR 81 68     65%   84 30.04 30.03      
Jun 28 08:53 SSE 6 10 Clear CLR 78 68     71%   79 30.04 30.03      
Jun 28 07:53 SSE 5 10 Clear CLR 73 68     84%   74 30.04 30.03      
Jun 28 06:53 ESE 3 10 Clear CLR 70 68     93%     30.03 30.02      
Jun 28 06:23 Calm 5 Fog/Mist CLR 67 66     97%     30.03        
Jun 28 06:09 Calm 2 Fog/Mist CLR 67 65     93%     30.03        
Jun 28 05:53 Calm 7 Clear CLR 67 66     97%     30.02 30.01      
Jun 28 04:53 Calm 5 Fog/Mist CLR 67 66     97%     30 29.99      
Jun 28 03:53 Calm 9 Cloudy OVC060 67 66     97%     30.01 30      
Jun 28 03:00 Calm 8 Clear CLR 67 66     97%     30.01        
Jun 28 02:53 Calm 2.5 Fog/Mist CLR 68 67     96%     30.01 30      
Jun 28 02:41 Calm 1.75 Fog/Mist CLR 68 67     96%     30.01        
Jun 28 01:53 Calm 10 Clear CLR 70 67     90%     30.02 30.01      
Jun 28 00:53 Calm 10 Clear CLR 69 67     93%     30.02 30.01      
Jun 27 23:53 Calm 10 Clear CLR 70 67     90%     30.03 30.02      
Jun 27 22:53 Calm 10 Clear CLR 71 68     90%   72 30.03 30.02      
Jun 27 21:53 Calm 10 Clear CLR 73 70     90%   74 30.03 30.02      
Jun 27 20:53 Calm 10 Clear CLR 75 70     84%   76 30.01 30.01      
Jun 27 19:53 SSE 5 10 Mostly Clear FEW048 79 67     67%   80 30.01 30      
Jun 27 18:53 ESE 6 10 Clear CLR 83 67     59%   86 30.01 30      
Jun 27 17:53 SE 6 10 Mostly Clear FEW047 84 65     53%   86 30.01 30      
Jun 27 16:53 ESE 6 10 Clear CLR 84 65     53%   86 30.03 30.02      
Jun 27 15:53 ESE 6 10 Mostly Clear FEW046 85 64     50%   86 30.04 30.03      
Jun 27 14:53 E 10 10 Clear CLR 85 66     53%   87 30.05 30.04      
Jun 27 13:53 ESE 8 10 Clear CLR 83 67     59%   86 30.07 30.06      
Jun 27 12:53 E 8 10 Clear CLR 82 63     53%   83 30.08 30.07      
Jun 27 11:53 ESE 8 10 Clear CLR 81 65     58%   83 30.09 30.08      
Jun 27 09:53 ENE 6 10 Clear CLR 76 66     71%   77 30.11 30.1      
Jun 27 08:53 NNE 9 10 Clear CLR 73 66     79%   74 30.12 30.11      
Jun 27 07:53 NE 7 10 Clear CLR 70 65     84%     30.1 30.09      
Jun 27 06:53 N 3 10 Clear CLR 66 63     90%     30.1 30.09      
Jun 27 05:53 N 5 10 Partly Cloudy SCT120 63 62     97%     30.09 30.09      
Jun 27 04:53 Calm 10 Mostly Clear FEW110 64 63     96%     30.07 30.06      
Jun 27 03:53 Calm 10 Clear CLR 64 63     96%     30.06 30.06      
Jun 27 01:53 Calm 10 Clear CLR 66 65     96%     30.07 30.06      
Jun 27 00:53 Calm 10 Clear CLR 67 65     93%     30.08 30.07      
Jun 26 23:53 Calm 10 Mostly Cloudy BKN120 69 65     87%     30.09 30.08      
Jun 26 22:53 E 3 10 Clear CLR 69 67     93%     30.09 30.08      
Jun 26 20:53 ENE 5 10 Clear CLR 72 66     82%   73 30.07 30.07      
Jun 26 19:53 ENE 5 10 Clear CLR 75 67     76%   76 30.07 30.06      
Jun 26 18:53 NE 5 10 Clear CLR 77 65     66%   78 30.07 30.06      
Jun 26 17:53 ENE 5 10 Clear CLR 80 64     58%   82 30.07 30.06      
Jun 26 16:53 E 3 10 Clear CLR 81 60     49%   82 30.08 30.08      
Jun 26 15:53 E 3 10 Clear CLR 82 57     43%   82 30.11 30.1      
Jun 26 14:53 ESE 5 10 Clear CLR 83 56     40%   82 30.13 30.12      
Jun 26 13:53 ESE 7 10 Clear CLR 83 60     46%   83 30.15 30.14      
Jun 26 12:53 3 10 Clear CLR 80 60     51%   81 30.18 30.17     0
Jun 26 11:53 E 6 10 Clear CLR 82 61     49%   83 30.2 30.19      
Jun 26 10:53 3 10 Clear CLR 78 63     60%   78 30.21 30.2      
Jun 26 08:53 NE 3 10 Cloudy FEW055 FEW075 OVC110 70 67     90%     30.2 30.19 0    
Jun 26 07:53 Calm 10 Mostly Cloudy FEW090 BKN120 69 67     93%     30.2 30.19 0    
Jun 26 06:53 Calm 10 Mostly Cloudy BKN110 66 65     96%     30.2 30.19      
Jun 26 05:53 SW 3 10 Mostly Cloudy BKN120 66 65     96%     30.19 30.18      
Jun 26 04:53 Calm 10 Partly Cloudy SCT110 65 64     97%     30.19 30.18      
Jun 26 03:53 Calm 10 Clear CLR 66 64     93%     30.19 30.18      
Jun 26 02:53 Calm 9 Clear CLR 65 64     97%     30.18 30.17      
Jun 26 01:53 Calm 10 Clear CLR 65 64     97%     30.19 30.18      
Jun 26 00:53 Calm 10 Clear CLR 67 65     93%     30.19 30.18      
Jun 25 23:53 Calm 10 Clear CLR 68 64     87%     30.2 30.19      
Jun 25 22:53 N 3 10 Clear   67 64     90%     30.19 30.19      
Jun 25 21:53 Calm 10 Clear CLR 71 63     76%   71 30.19 30.18      
Jun 25 20:53 Calm 10 Clear CLR 73 65     76%   74 30.17 30.16      
Jun 25 19:53 ENE 5 10 Clear CLR 77 62     60%   77 30.17 30.16      
Jun 25 18:53 NE 3 10 Clear CLR 81 61     51%   82 30.17 30.16      
Jun 25 17:53 NE 7 10 Clear CLR 82 60     47%   82 30.17 30.16      
Jun 25 16:53 NE 5 10 Clear CLR 82 60     47%   82 30.18 30.17      
Jun 25 14:53 N 8 10 Clear CLR 83 60     46%   83 30.22 30.21      
Jun 25 13:53 E 6 10 Clear CLR 82 59     46%   82 30.24 30.23      
Jun 25 12:53 E 9 10 Clear CLR 82 60     47%   82 30.26 30.24      
Jun 25 11:53 E 6 10 Clear CLR 81 59     47%   81 30.26 30.25      
Jun 25 10:53 E 8 10 Clear CLR 79 60     52%   79 30.26 30.25      
Jun 25 09:53 E 6 10 Clear CLR 77 60     56%   77 30.26 30.25      
Jun 25 08:53 NNE 7 10 Clear CLR 73 63     71%   73 30.25 30.24      
Jun 25 07:53 N 7 10 Clear CLR 70 65     84%     30.25 30.24      
Jun 25 06:53 NNW 3 10 Partly Cloudy SCT110 69 63     81%     30.23 30.22      
Jun 25 05:53 N 3 10 Mostly Cloudy BKN100 69 64     84%     30.2 30.19      
Jun 25 04:53 Calm 10 Mostly Cloudy BKN110 69 64     84%     30.2 30.19      
Jun 25 03:53 Calm 10 Mostly Cloudy BKN110 70 63     78%     30.19 30.18      
Jun 25 02:53 Calm 10 Mostly Cloudy BKN110 70 66     87%     30.19 30.18      
Jun 25 01:53 N 3 10 Clear CLR 69 66     90%     30.18 30.17      
Jun 25 00:53 N 6 10 Clear CLR 69 66     90%     30.17 30.16      
Jun 24 23:53 N 3 10 Clear CLR 70 65     84%     30.17 30.16      
Jun 24 22:53 N 7 10 Clear CLR 70 64     81%     30.16 30.15      
Jun 24 21:53 NNE 6 10 Clear CLR 72 65     79%   73 30.15 30.14      
Jun 24 20:53 N 3 10 Clear CLR 73 67     81%   74 30.13 30.13      
Jun 24 19:53 NE 5 10 Clear CLR 75 67     76%   76 30.13 30.12      
Jun 24 18:53 NNE 5 10 Clear CLR 77 65     66%   78 30.12 30.11      
Jun 24 17:53 NNE 7 10 Clear CLR 78 64     62%   79 30.11 30.1      
Jun 24 16:53 NE 9 10 Clear CLR 79 63     58%   79 30.1 30.09      
Jun 24 15:53 NNE 8 10 Clear CLR 80 65     60%   82 30.1 30.09      
Jun 24 14:53 N 10 10 Clear CLR 82 64     55%   84 30.11 30.1      
Jun 24 13:53 N 11 10 Clear CLR 81 65     58%   83 30.12 30.11      
Jun 11 16:53 SSE 11 10 Clear CLR 88 68     52%   92 29.99 29.98      
Jun 09 06:05 Calm 4 Fog/Mist CLR 57 56     96%     29.95        
Jun 09 04:53 Calm 10 Clear CLR 58 57     97%     29.93 29.93      
Jun 08 23:53 Calm 10 Clear   62 58     86%     29.95 29.94      
Jun 08 22:53 Calm 10 Clear CLR 64 58     81%     29.95 29.94      
Jun 08 18:53 NE 7 10 Clear   76 56     50%   76 29.91 29.91      
Jun 08 15:53 N 11 10 Clear CLR 80 54     41%   80 29.95 29.94      
Jun 08 00:53 NNW 5 10 Clear CLR 64 58     81%     29.96 29.96      
Jun 06 12:53 NNE 11 10 Clear CLR 83 68     61%   86 29.81 29.8      
Jun 06 01:38 NNE 7 10 Mostly Cloudy BKN008 73 71     94%   74 29.78        
Notice The following observation data may not be complete
Jun 05 13:53 Calm 10 Cloudy OVC080   70      %     29.76 29.75